This is the latest recevied weather packets stored in our database for station/object W8XLR-2. If no packets are shown the sender has not sent any weather packets the latest 1 day(s).
| Time | Temp. | Humidity | Pressure | Rain* | Wind** | Luminosity | Snow |
|---|---|---|---|---|---|---|---|
| 1778060213 | 7.22° C | 96% | 1009.8 hPa | 1.52 mm | - | - | - |
| 1778058409 | 7.78° C | 96% | 1009.7 hPa | 2.54 mm | - | - | - |
| 1778057208 | 8.33° C | 96% | 1009.7 hPa | 2.79 mm | - | - | - |
| 1778056611 | 8.33° C | 96% | 1009.7 hPa | 2.54 mm | - | - | - |
| 1778056011 | 8.89° C | 96% | 1009.6 hPa | 2.29 mm | - | - | - |
| 1778054812 | 8.89° C | 96% | 1009.3 hPa | 1.78 mm | - | - | - |
| 1778054210 | 8.89° C | 97% | 1009.1 hPa | 1.78 mm | - | - | - |
| 1778053011 | 8.89° C | 96% | 1009.2 hPa | 1.78 mm | - | - | - |
| 1778052609 | 9.44° C | 96% | 1009.2 hPa | 1.78 mm | - | - | - |
| 1778052413 | 9.44° C | 96% | 1009.2 hPa | 1.78 mm | - | - | - |
| 1778051409 | 9.44° C | 96% | 1009.2 hPa | 1.78 mm | - | - | - |
| 1778050608 | 9.44° C | 96% | 1009.4 hPa | 1.52 mm | - | - | - |
| 1778050075 | 9.44° C | 96% | 1009.4 hPa | 1.52 mm | - | - | - |
| 1778049413 | 9.44° C | 96% | 1009.7 hPa | 1.27 mm | - | - | - |
| 1778048208 | 9.44° C | 96% | 1010 hPa | 1.27 mm | - | - | - |
| 1778047610 | 10° C | 96% | 1009.9 hPa | 1.52 mm | - | - | - |
| 1778047074 | 10° C | 96% | 1010.2 hPa | 1.78 mm | - | - | - |
| 1778047012 | 10° C | 96% | 1010.2 hPa | 1.78 mm | - | - | - |
| 1778046408 | 10° C | 96% | 1010.2 hPa | 1.78 mm | - | - | - |
| 1778045809 | 10° C | 96% | 1010.4 hPa | 1.78 mm | - | - | - |
| 1778045209 | 10° C | 96% | 1010.5 hPa | 1.78 mm | - | - | - |
| 1778044008 | 10° C | 96% | 1010.6 hPa | 1.52 mm | - | - | - |
| 1778043411 | 10° C | 96% | 1010.7 hPa | 1.27 mm | - | - | - |
| 1778042864 | 10° C | 96% | 1010.7 hPa | 1.27 mm | - | - | - |
| 1778042209 | 10° C | 96% | 1010.8 hPa | 1.52 mm | - | - | - |
* Rain latest hour (hover to see other rain measurements)
** Current wind speed in m/s (hover to see current wind gust speed)